TimeMDT,TemperatureF,Dew PointF,Humidity,Sea Level PressureIn,VisibilityMPH,Wind Direction,Wind SpeedMPH,Gust SpeedMPH,PrecipitationIn,Events,Conditions,WindDirDegrees,DateUTC
12:15 AM,37.4,23.0,56,29.88,10.0,NNE,9.2,-,N/A,,Overcast,20,2013-10-28 06:15:00
12:35 AM,37.4,23.0,56,29.86,10.0,NW,16.1,-,N/A,,Overcast,320,2013-10-28 06:35:00
12:55 AM,37.4,26.6,65,29.85,10.0,NNW,15.0,-,N/A,,Overcast,330,2013-10-28 06:55:00
1:15 AM,35.6,26.6,70,29.85,10.0,NNW,15.0,-,N/A,,Overcast,340,2013-10-28 07:15:00
1:35 AM,35.6,24.8,65,29.85,10.0,North,12.7,-,N/A,,Overcast,350,2013-10-28 07:35:00
1:55 AM,35.6,24.8,65,29.85,10.0,North,11.5,-,N/A,,Overcast,350,2013-10-28 07:55:00
2:15 AM,35.6,26.6,70,29.85,10.0,North,11.5,-,N/A,,Mostly Cloudy,10,2013-10-28 08:15:00
2:35 AM,35.6,26.6,70,29.85,10.0,North,13.8,17.3,N/A,,Overcast,360,2013-10-28 08:35:00
2:55 AM,33.8,26.6,75,29.85,10.0,North,17.3,-,N/A,,Overcast,350,2013-10-28 08:55:00
3:15 AM,33.8,26.6,75,29.85,10.0,NNW,20.7,-,N/A,,Overcast,340,2013-10-28 09:15:00
3:35 AM,33.8,26.6,75,29.85,10.0,NNW,20.7,27.6,N/A,,Overcast,340,2013-10-28 09:35:00
3:55 AM,32.0,26.6,80,29.83,10.0,North,18.4,-,N/A,,Overcast,350,2013-10-28 09:55:00
4:15 AM,32.0,26.6,80,29.84,10.0,NNW,18.4,26.5,N/A,,Overcast,340,2013-10-28 10:15:00
4:35 AM,32.0,28.4,87,29.85,10.0,North,16.1,20.7,N/A,,Overcast,350,2013-10-28 10:35:00
4:55 AM,32.0,28.4,87,29.85,5.0,North,13.8,-,N/A,Snow,Light Snow,360,2013-10-28 10:55:00
5:15 AM,32.0,30.2,93,29.83,2.5,North,16.1,20.7,N/A,Snow,Light Snow,360,2013-10-28 11:15:00
5:35 AM,32.0,30.2,93,29.83,10.0,North,15.0,-,N/A,,Overcast,360,2013-10-28 11:35:00
5:55 AM,32.0,30.2,93,29.82,10.0,North,23.0,28.8,N/A,,Overcast,350,2013-10-28 11:55:00
6:15 AM,32.0,30.2,93,29.83,10.0,NNW,18.4,23.0,N/A,,Mostly Cloudy,340,2013-10-28 12:15:00
6:35 AM,32.0,30.2,93,29.83,10.0,North,18.4,-,N/A,,Overcast,350,2013-10-28 12:35:00
6:55 AM,32.0,28.4,87,29.83,7.0,NNW,20.7,-,N/A,,Overcast,340,2013-10-28 12:55:00
7:15 AM,30.2,30.2,100,29.83,0.5,North,15.0,-,N/A,Snow,Snow,350,2013-10-28 13:15:00
7:35 AM,30.2,30.2,100,29.83,1.8,NNW,16.1,19.6,N/A,Snow,Light Snow,340,2013-10-28 13:35:00
7:55 AM,30.2,30.2,100,29.84,0.5,North,13.8,19.6,N/A,Snow,Snow,350,2013-10-28 13:55:00
8:15 AM,30.2,30.2,100,29.83,0.8,North,16.1,-,N/A,Snow,Snow,350,2013-10-28 14:15:00
8:35 AM,30.2,28.4,93,29.83,0.5,North,11.5,20.7,N/A,Snow,Light Snow,10,2013-10-28 14:35:00
8:55 AM,30.2,28.4,93,29.83,5.0,North,18.4,-,N/A,,Overcast,350,2013-10-28 14:55:00
9:15 AM,30.2,26.6,86,29.83,10.0,North,18.4,-,N/A,,Overcast,350,2013-10-28 15:15:00
9:35 AM,28.4,26.6,93,29.84,0.8,North,23.0,27.6,N/A,Snow,Light Snow,350,2013-10-28 15:35:00
9:55 AM,28.4,26.6,93,29.84,0.2,North,20.7,27.6,N/A,Snow,Snow,350,2013-10-28 15:55:00
10:15 AM,28.4,26.6,93,29.84,1.2,North,18.4,-,N/A,Snow,Light Snow,350,2013-10-28 16:15:00
10:35 AM,28.4,26.6,93,29.83,3.0,NNW,25.3,29.9,N/A,Snow,Light Snow,340,2013-10-28 16:35:00
10:55 AM,28.4,26.6,93,-9999,5.0,NNW,23.0,29.9,N/A,,Overcast,340,2013-10-28 16:55:00
11:15 AM,28.4,24.8,86,-9999,10.0,North,18.4,-,N/A,,Overcast,350,2013-10-28 17:15:00
11:35 AM,28.4,26.6,93,-9999,10.0,North,15.0,23.0,N/A,,Overcast,10,2013-10-28 17:35:00
11:55 AM,28.4,24.8,86,-9999,10.0,North,21.9,25.3,N/A,,Overcast,350,2013-10-28 17:55:00
12:15 PM,30.2,26.6,86,29.82,10.0,NNW,17.3,25.3,N/A,,Overcast,340,2013-10-28 18:15:00
12:35 PM,30.2,26.6,86,-9999,10.0,North,17.3,26.5,N/A,,Mostly Cloudy,350,2013-10-28 18:35:00
12:55 PM,30.2,26.6,86,29.79,10.0,North,23.0,29.9,N/A,,Mostly Cloudy,350,2013-10-28 18:55:00
1:15 PM,30.2,26.6,86,29.79,10.0,North,23.0,31.1,N/A,,Mostly Cloudy,360,2013-10-28 19:15:00
1:35 PM,28.4,24.8,86,29.78,10.0,NNW,26.5,32.2,N/A,,Scattered Clouds,340,2013-10-28 19:35:00
1:55 PM,26.6,23.0,86,29.78,7.0,North,25.3,35.7,N/A,,Mostly Cloudy,350,2013-10-28 19:55:00
2:15 PM,26.6,23.0,86,29.77,1.0,North,29.9,35.7,N/A,,Overcast,350,2013-10-28 20:15:00
2:35 PM,26.6,24.8,93,29.77,7.0,North,23.0,32.2,N/A,,Overcast,350,2013-10-28 20:35:00
2:55 PM,26.6,23.0,86,-9999,10.0,North,26.5,33.4,N/A,,Overcast,350,2013-10-28 20:55:00
3:15 PM,26.6,24.8,93,-9999,10.0,North,24.2,35.7,N/A,,Overcast,350,2013-10-28 21:15:00
3:35 PM,24.8,23.0,93,-9999,0.2,North,29.9,34.5,N/A,Snow,Light Snow,350,2013-10-28 21:35:00
3:55 PM,23.0,23.0,100,-9999,0.2,North,28.8,33.4,N/A,Snow,Heavy Snow,350,2013-10-28 21:55:00
4:15 PM,23.0,23.0,100,-9999,0.2,North,25.3,32.2,N/A,Fog,Light Freezing Fog,350,2013-10-28 22:15:00
4:35 PM,23.0,23.0,100,-9999,0.8,North,24.2,33.4,N/A,,Overcast,350,2013-10-28 22:35:00
4:55 PM,23.0,23.0,100,-9999,1.2,North,27.6,35.7,N/A,,Overcast,350,2013-10-28 22:55:00
5:15 PM,23.0,21.2,93,-9999,1.0,North,29.9,36.8,N/A,,Overcast,350,2013-10-28 23:15:00
5:35 PM,21.2,21.2,100,-9999,1.0,North,28.8,35.7,N/A,,Overcast,350,2013-10-28 23:35:00
5:55 PM,21.2,21.2,100,-9999,0.8,NNW,29.9,38.0,N/A,,Overcast,340,2013-10-28 23:55:00
6:15 PM,21.2,21.2,100,-9999,0.2,North,31.1,39.1,N/A,Snow,Light Snow,350,2013-10-29 00:15:00
6:35 PM,21.2,21.2,100,-9999,0.8,North,21.9,35.7,N/A,,Overcast,360,2013-10-29 00:35:00
6:55 PM,21.2,21.2,100,-9999,2.5,North,26.5,38.0,N/A,,Overcast,360,2013-10-29 00:55:00
7:15 PM,21.2,21.2,100,-9999,3.0,North,23.0,34.5,N/A,,Overcast,350,2013-10-29 01:15:00
7:35 PM,21.2,21.2,100,-9999,1.8,North,25.3,34.5,N/A,,Overcast,350,2013-10-29 01:35:00
7:55 PM,21.2,19.4,93,-9999,1.2,North,25.3,32.2,N/A,,Overcast,360,2013-10-29 01:55:00
8:15 PM,21.2,19.4,93,-9999,0.8,North,20.7,38.0,N/A,Snow,Light Snow,360,2013-10-29 02:15:00
8:35 PM,21.2,19.4,93,-9999,0.8,North,24.2,31.1,N/A,Snow,Light Snow,360,2013-10-29 02:35:00
8:55 PM,21.2,19.4,93,-9999,0.8,North,21.9,29.9,N/A,Snow,Light Snow,360,2013-10-29 02:55:00
9:15 PM,21.2,19.4,93,-9999,2.0,North,20.7,29.9,N/A,,Overcast,350,2013-10-29 03:15:00
9:35 PM,21.2,19.4,93,-9999,0.8,North,19.6,26.5,N/A,Snow,Light Snow,360,2013-10-29 03:35:00
9:55 PM,21.2,19.4,93,-9999,0.5,North,23.0,33.4,N/A,Snow,Snow,360,2013-10-29 03:55:00
10:15 PM,19.4,19.4,100,-9999,1.2,North,23.0,33.4,N/A,Snow,Light Snow,360,2013-10-29 04:15:00
10:35 PM,19.4,19.4,100,-9999,1.2,North,25.3,32.2,N/A,,Overcast,350,2013-10-29 04:35:00
10:55 PM,19.4,19.4,100,-9999,2.0,North,20.7,31.1,N/A,,Overcast,360,2013-10-29 04:55:00
11:15 PM,19.4,19.4,100,-9999,1.2,North,27.6,34.5,N/A,,Overcast,360,2013-10-29 05:15:00
11:35 PM,19.4,19.4,100,-9999,1.8,North,21.9,34.5,N/A,,Overcast,360,2013-10-29 05:35:00
11:55 PM,19.4,19.4,100,-9999,7.0,North,18.4,29.9,N/A,,Overcast,360,2013-10-29 05:55:00